Location: Le Petit-Vavre
(46.5081°N, 1.5239°E)
Time: 11:24:07
(UTC+00:00)

CZ-2C R/B - Visible Passes

Search period start: 20 September 2021 00:00
Search period end: 30 September 2021 00:00
Orbit: 450 x 512 km, 97.2° (Epoch: 19 September)

Date Brightness Start Highest point End Pass type
(mag) Time Alt. Az. Time Alt. Az. Time Alt. Az.
20 Sep ? 19:40:10 13° NE 19:40:10 13° NE 19:41:06 10° NNE visible
20 Sep ? 21:14:28 18° NNW 21:14:28 18° NNW 21:15:31 10° NNW visible
21 Sep ? 20:48:52 20° N 20:48:52 20° N 20:50:08 10° N visible
22 Sep ? 20:23:16 19° N 20:23:16 19° N 20:24:29 10° N visible
23 Sep ? 19:57:40 15° NNE 19:57:40 15° NNE 19:58:33 10° NNE visible
23 Sep ? 21:31:57 11° NW 21:31:57 11° NW 21:32:11 10° NNW visible
24 Sep ? 21:06:21 14° NNW 21:06:21 14° NNW 21:06:58 10° NNW visible
25 Sep ? 20:40:45 15° N 20:40:45 15° N 20:41:29 10° N visible
26 Sep ? 20:15:08 14° N 20:15:08 14° N 20:15:44 10° N visible
27 Sep ? 19:49:31 11° NNE 19:49:31 11° NNE 19:49:38 10° NNE visible
28 Sep ? 20:58:11 11° NNW 20:58:11 11° NNW 20:58:19 10° NNW visible
29 Sep ? 20:32:34 11° N 20:32:34 11° N 20:32:43 10° N visible
